Temperature
7 7 7 8 8 8 8 8 8 8 8 8 8 7 7 7 7 7 7 7 6 6 6 6 6 5 5 5 5 4 4 3 3 3 3 2 2 2 2 2 2 2 2
7 7 7 7 7 7 7 7 7 7 7 7 7 7 7 7 7 6 6 6 6 6 6 5 5 5 5 4 4 4 3 3 3 2 2 2 2 2 2 2 2 2 2
6 6 6 7 7 7 7 7 7 7 7 6 6 6 6 6 6 6 6 6 6 5 5 5 5 4 4 4 4 3 3 3 2 2 2 2 2 1 1 1 2 2 2
5 6 6 6 6 6 6 6 6 6 6 6 6 6 6 6 6 5 5 5 5 5 5 4 4 4 4 4 3 3 2 2 2 1 1 1 1 1 1 1 1 1 1
5 5 5 5 6 6 6 6 6 6 6 6 6 6 5 5 5 5 5 5 4 4 4 4 4 4 3 3 2 2 2 2 1 1 1 1 1 1 1 0 0 1 1
4 4 4 5 5 5 5 5 5 5 5 5 5 5 5 5 5 5 4 4 4 4 4 4 3 3 3 3 2 2 2 1 1 1 1 0 0 0 0 -0 -0 -0 0
3 4 4 4 4 4 4 5 5 5 5 5 5 5 5 4 4 4 4 4 4 3 3 3 3 3 2 2 2 2 1 1 1 1 0 0 0 0 -0 -0 -0 -1 -1
3 3 3 4 4 4 4 4 4 4 4 4 4 4 4 4 4 4 3 3 3 3 3 2 2 2 2 2 2 1 1 1 1 0 0 0 -0 -0 -0 -1 -1 -1 -0
2 3 3 3 3 3 4 4 4 4 4 4 4 4 4 3 3 3 3 3 3 2 2 2 2 2 1 1 1 1 1 1 0 0 -0 -0 -0 -0 -1 -1 -1 -1 -1
2 2 2 2 2 3 3 3 3 3 3 3 3 3 3 3 3 3 2 2 2 2 2 2 1 1 1 1 1 1 1 0 0 0 0 -0 -0 -0 -1 -1 -1 -1 -2
2 2 2 2 2 2 2 3 3 3 3 2 2 2 2 2 2 2 2 2 1 1 1 1 1 1 1 1 0 0 0 -0 -0 -0 -0 -0 -0 -0 -1 -1 -1 -1 -2
2 2 2 2 2 2 2 2 2 2 2 2 2 2 2 2 2 1 1 1 1 1 1 1 1 1 0 0 -0 -0 -0 -0 -0 -1 -1 -1 -1 -1 -1 -1 -1 -1 -2
1 1 1 1 1 1 1 1 2 2 1 1 1 1 1 1 1 1 1 0 0 0 0 0 0 0 0 -0 -0 -0 -1 -1 -1 -1 -1 -1 -1 -1 -1 -1 -1 -1 -2
1 1 1 1 1 1 1 1 1 1 1 1 1 1 1 1 1 1 0 0 -0 -0 -0 -0 -0 -0 -0 -0 -0 -1 -1 -1 -1 -1 -1 -1 -1 -1 -1 -1 -1 -1 -1
-0 -0 -0 -0 -0 0 0 0 0 0 0 0 0 0 0 0 0 0 -0 -0 -0 -0 -1 -1 -0 -0 -0 -1 -1 -1 -1 -1 -1 -1 -2 -2 -2 -2 -2 -2 -2 -2 -2
-1 -1 -1 -1 -1 -1 -0 -0 -1 -1 -1 -1 -0 -0 -0 -0 -0 -1 -1 -1 -1 -1 -1 -1 -1 -1 -1 -1 -1 -1 -1 -1 -2 -2 -2 -2 -2 -2 -2 -2 -2 -2 -2
-1 -1 -1 -1 -1 -1 -1 -1 -1 -1 -1 -1 -1 -1 -1 -1 -1 -1 -1 -1 -1 -1 -1 -1 -1 -1 -2 -2 -2 -2 -2 -2 -2 -2 -2 -2 -2 -2 -2 -2 -2 -2 -2
-1 -1 -1 -1 -1 -1 -1 -1 -2 -2 -2 -2 -2 -2 -2 -1 -1 -1 -1 -1 -1 -1 -1 -1 -2 -2 -2 -2 -2 -2 -2 -2 -2 -2 -2 -2 -2 -2 -2 -2 -2 -2 -3
-2 -2 -2 -2 -2 -2 -2 -2 -2 -2 -2 -2 -2 -2 -2 -2 -2 -2 -2 -2 -2 -2 -2 -2 -2 -2 -2 -2 -2 -2 -2 -2 -2 -2 -2 -2 -2 -3 -3 -3 -3 -3 -3
-3 -3 -3 -3 -2 -2 -3 -3 -3 -3 -3 -3 -3 -2 -2 -2 -2 -2 -2 -2 -2 -2 -2 -2 -2 -2 -2 -2 -2 -3 -3 -3 -3 -3 -3 -3 -3 -3 -3 -3 -3 -3 -3
-3 -3 -3 -3 -3 -3 -3 -3 -3 -3 -4 -4 -3 -3 -3 -3 -3 -3 -2 -2 -3 -3 -3 -3 -3 -3 -3 -3 -3 -3 -3 -3 -3 -3 -3 -3 -3 -3 -3 -3 -3 -3 -3
-4 -4 -4 -4 -4 -4 -4 -4 -4 -4 -4 -4 -4 -4 -3 -3 -3 -3 -3 -3 -3 -3 -3 -3 -3 -3 -3 -3 -3 -3 -3 -3 -3 -3 -3 -3 -3 -3 -3 -3 -3 -3 -3
-5 -5 -5 -5 -5 -5 -5 -4 -4 -4 -4 -4 -4 -4 -4 -4 -3 -4 -4 -3 -3 -3 -3 -3 -3 -3 -3 -3 -3 -3 -3 -3 -3 -3 -3 -3 -3 -3 -3 -3 -3 -3 -3
-5 -5 -5 -5 -5 -5 -5 -5 -5 -5 -4 -4 -4 -4 -4 -4 -4 -4 -4 -4 -4 -4 -4 -4 -4 -3 -3 -3 -3 -3 -3 -4 -4 -4 -4 -4 -4 -4 -4 -4 -4 -4 -4
-6 -6 -6 -6 -6 -6 -5 -5 -5 -5 -5 -5 -4 -4 -4 -4 -4 -4 -4 -4 -4 -4 -4 -4 -4 -4 -4 -4 -3 -3 -3 -3 -4 -4 -4 -4 -4 -4 -4 -3 -4 -4 -4
-7 -6 -6 -6 -6 -6 -6 -6 -5 -5 -5 -5 -5 -5 -5 -5 -5 -5 -5 -4 -4 -4 -4 -4 -4 -4 -4 -4 -3 -3 -3 -3 -3 -4 -4 -4 -4 -4 -4 -4 -4 -4 -4
Wind_Speed
3 3 3 3 4 4 4 5 5 5 5 5 5 5 4 4 4 4 3 3 3 2 1 2 1 1 1 1 1 1 2 2 5 6 5 5 6 7 10 11 11 11 12
3 3 3 3 3 4 4 4 5 5 5 5 5 5 4 4 4 4 4 3 3 3 2 2 2 1 1 2 1 2 2 2 4 8 7 6 7 7 8 8 9 10 11
2 3 3 3 3 4 3 3 4 4 5 5 5 5 5 4 4 4 4 4 3 3 3 2 2 1 2 2 2 2 2 3 3 5 7 6 6 6 7 7 7 7 10
2 3 3 3 4 4 3 3 4 4 5 5 5 5 5 4 4 4 3 3 3 2 2 2 2 2 2 2 2 2 2 3 3 4 6 6 6 6 5 7 8 7 8
2 3 3 3 3 3 3 3 3 4 4 5 5 4 4 4 4 4 4 4 3 2 1 2 2 2 3 2 2 2 2 3 3 4 6 6 6 6 7 6 8 9 7
2 2 2 2 3 3 3 3 3 3 3 4 4 4 4 3 4 5 4 4 3 3 2 1 2 2 3 4 4 4 4 4 4 4 5 6 8 7 7 7 7 8 7
1 1 1 2 3 2 2 3 3 3 3 4 4 4 4 4 5 5 5 3 3 3 2 1 1 2 2 2 4 5 5 6 6 5 5 7 7 7 7 7 7 8 8
1 1 1 1 2 2 2 2 2 2 3 3 3 4 3 3 5 5 4 3 2 2 2 2 2 2 2 3 2 3 3 4 5 4 4 6 6 6 6 6 7 7 6
1 1 1 2 2 2 2 2 2 2 2 2 3 3 3 3 4 4 4 3 2 2 2 1 1 2 4 4 2 3 4 4 5 6 7 7 9 10 8 5 5 6 7
1 1 1 2 2 2 3 2 1 2 2 2 2 2 3 2 3 3 3 2 2 1 1 1 2 2 4 4 2 2 4 5 5 5 6 7 7 7 8 5 4 5 5
1 1 1 1 2 2 1 1 2 2 2 2 2 1 2 2 2 3 3 2 2 1 1 1 2 3 4 4 4 2 4 5 3 3 4 4 5 5 5 5 4 4 5
2 2 1 1 1 1 1 1 2 3 2 2 2 1 1 1 2 2 2 1 1 1 1 1 1 2 3 4 3 4 5 4 2 3 3 4 5 5 5 6 6 5 5
2 2 2 2 1 1 1 2 2 2 2 2 2 2 1 1 1 2 1 1 0 0 1 1 1 2 3 3 3 4 4 2 2 3 3 4 4 5 5 6 6 5 6
2 2 2 2 1 1 1 1 2 2 2 2 2 2 1 1 1 1 1 1 1 1 1 1 2 3 3 3 3 3 2 2 2 2 3 4 4 4 5 5 5 6 5
2 2 2 1 1 1 1 0 1 1 2 3 3 3 3 2 2 1 1 1 1 1 1 2 2 1 2 2 2 2 3 3 3 3 3 4 5 5 5 5 4 4 4
2 1 1 1 1 1 1 2 3 2 1 1 1 2 1 1 2 2 1 1 1 2 2 1 1 1 1 1 2 2 3 3 3 3 3 4 4 5 5 5 4 4 5
1 1 1 1 1 1 1 1 2 3 4 3 2 1 1 2 2 2 2 2 3 3 2 1 0 0 1 1 2 2 3 3 3 3 3 4 4 4 4 5 5 5 5
1 1 1 1 1 1 1 1 1 1 1 1 1 1 2 2 3 3 3 3 2 1 1 0 1 1 1 1 2 2 3 3 3 3 3 4 4 4 4 5 5 5 5
1 1 1 1 1 1 1 1 1 1 1 1 1 1 2 2 3 3 3 2 1 0 0 0 1 1 1 2 2 2 2 3 3 3 3 4 4 4 4 4 5 7 6
1 1 1 1 1 1 1 1 1 1 1 0 0 0 1 1 1 1 1 1 1 0 0 1 1 1 1 2 2 2 2 3 3 3 3 4 4 4 4 5 5 5 5
0 0 0 1 1 1 1 1 1 1 1 0 0 1 0 1 1 0 0 0 0 1 1 1 1 1 1 2 2 2 2 3 3 3 3 4 4 4 4 4 4 4 4
0 0 0 1 1 1 1 1 1 1 1 1 0 1 1 1 0 0 0 1 1 1 1 1 1 1 2 2 2 2 3 3 3 3 3 4 4 3 3 3 4 4 4
0 0 0 0 1 1 1 1 1 1 1 1 0 0 0 0 0 0 1 1 1 1 1 1 1 1 2 2 2 3 3 4 4 4 3 3 3 3 3 3 4 4 4
1 1 1 0 1 1 1 1 1 1 1 1 0 0 0 0 0 1 1 1 1 1 1 1 1 2 3 3 3 4 4 5 4 4 4 3 3 3 3 3 3 4 4
1 1 1 1 1 1 1 1 1 1 1 0 0 0 0 0 0 1 1 1 1 1 2 2 2 2 3 4 4 5 6 6 5 4 3 2 3 3 3 3 3 3 3
1 1 1 1 1 1 1 1 1 1 1 1 0 0 0 0 0 1 1 1 1 1 2 2 3 3 4 4 5 6 6 6 5 5 3 2 2 3 3 3 3 3 3
Wind_Direction
177 179 170 171 167 168 173 178 178 174 166 167 167 165 163 165 163 161 169 164 164 171 181 186 223 246 258 268 268 270 265 256 281 294 295 304 309 312 321 325 325 324 324
177 164 163 156 153 161 172 175 169 171 170 169 165 165 171 171 170 174 177 172 176 186 201 199 233 259 266 273 274 272 273 267 273 294 306 310 309 310 313 317 324 325 323
167 159 155 154 160 168 172 169 167 166 166 164 164 172 177 176 177 182 180 181 186 191 193 201 222 225 269 284 287 282 289 301 291 292 301 307 309 312 318 317 316 318 322
163 166 166 170 170 172 168 165 166 166 168 170 173 177 177 175 175 176 174 176 180 191 198 205 212 220 237 252 276 279 296 311 311 304 303 308 308 311 319 324 324 324 321
160 171 181 172 160 155 158 164 161 165 171 171 168 169 170 173 179 175 173 171 173 184 208 218 224 251 266 267 282 282 294 302 308 309 308 311 314 325 324 321 318 320 317
167 179 175 159 154 156 159 158 155 163 165 160 166 168 169 183 185 179 168 166 174 186 213 250 259 263 284 304 308 306 300 295 299 300 304 306 309 311 313 314 316 322 320
140 138 156 161 155 156 149 142 155 169 160 158 167 168 177 188 179 175 166 160 174 192 207 227 280 292 311 294 306 317 317 313 301 291 292 294 299 303 308 310 313 313 304
147 142 127 144 156 148 141 151 164 169 168 170 172 173 172 185 174 167 160 149 168 196 214 219 234 266 285 299 303 310 307 306 302 299 280 288 297 301 296 297 302 304 296
157 160 162 157 153 156 160 170 179 164 166 171 168 166 166 184 180 169 151 152 173 210 224 223 232 253 285 309 310 305 312 315 326 323 318 318 322 324 324 322 319 319 313
187 176 156 156 163 172 178 172 160 152 159 153 148 154 160 178 189 174 158 161 180 216 249 254 267 286 291 305 300 294 305 313 319 324 332 333 332 329 332 328 308 307 309
153 135 128 141 159 166 161 154 140 134 128 134 137 138 155 171 173 172 164 161 179 195 241 274 277 300 303 308 317 296 300 316 320 326 329 330 330 331 329 325 309 295 298
110 116 116 118 127 129 123 120 132 140 139 142 138 129 142 173 166 176 168 148 140 178 234 261 284 315 328 327 329 325 331 343 346 341 336 331 330 327 321 318 313 304 286
96 105 99 84 78 103 135 143 141 146 154 162 161 168 173 166 182 171 171 145 87 36 211 254 335 355 354 349 348 351 358 358 343 337 329 321 314 310 313 317 321 318 313
111 107 105 107 87 64 80 149 162 162 167 175 178 184 187 188 193 194 200 191 117 70 74 67 38 33 16 0 2 7 359 332 329 317 314 314 317 321 321 323 324 328 329
120 124 115 110 116 79 35 344 191 188 187 187 196 191 186 203 223 221 192 186 186 160 89 63 45 26 15 9 6 1 352 346 345 333 324 325 327 328 325 327 327 330 327
128 127 130 130 126 115 80 38 32 48 74 100 146 172 196 201 180 165 151 131 119 120 88 101 52 2 336 336 344 343 339 338 335 330 328 326 325 326 330 335 336 333 331
152 151 148 148 147 127 116 107 66 37 48 70 80 95 118 134 138 140 134 114 112 104 85 116 177 273 308 319 319 318 318 321 324 326 326 324 322 325 332 337 339 337 332
87 129 137 151 150 148 148 142 132 122 72 25 23 53 92 109 119 122 118 100 104 79 81 173 248 277 298 304 305 312 317 323 325 323 324 324 325 328 332 334 334 331 328
49 94 123 131 139 146 140 133 128 131 129 100 51 40 58 89 93 98 101 101 138 174 325 289 298 300 296 296 299 304 309 309 313 317 322 326 326 328 328 328 329 330 332
31 42 107 131 140 136 138 139 135 136 137 125 108 34 65 73 75 63 52 68 127 217 268 282 298 301 300 299 298 301 305 307 312 315 320 322 321 322 322 324 328 328 330
21 26 63 141 161 163 155 154 151 153 167 200 269 293 45 92 118 130 90 328 252 253 265 282 293 292 294 297 301 300 297 299 303 307 313 315 317 318 320 321 325 324 326
29 278 237 200 177 172 159 150 150 165 181 194 243 8 34 62 93 236 251 277 294 293 286 271 270 271 271 273 284 296 296 296 298 302 307 311 313 316 318 319 324 326 329
218 238 251 207 181 182 154 144 157 180 190 196 192 4 46 76 39 310 295 305 323 337 338 315 298 304 313 297 282 274 276 282 284 286 294 303 309 312 313 316 318 321 327
211 202 202 203 190 175 172 173 174 189 189 187 186 199 206 212 309 314 322 331 345 350 343 326 304 295 304 309 302 291 284 286 287 272 274 285 294 303 309 314 316 318 321
196 192 184 176 181 179 179 186 189 181 177 181 194 195 172 149 315 320 337 360 357 341 332 330 324 309 305 308 308 306 303 305 304 294 270 283 292 297 302 307 313 317 320
174 175 174 175 183 186 189 192 185 179 181 188 198 185 182 230 292 308 322 334 338 337 334 331 322 316 311 310 307 310 311 313 312 310 296 288 295 299 302 308 313 312 313
Height
1472 1474 1476 1478 1480 1482 1484 1487 1489 1490 1492 1493 1495 1496 1497 1498 1498 1499 1500 1500 1501 1501 1501 1501 1501 1500 1499 1498 1497 1496 1494 1492 1488 1484 1483 1480 1477 1474 1470 1467 1464 1460 1456
1470 1472 1474 1476 1478 1480 1482 1484 1486 1487 1489 1491 1492 1493 1494 1496 1496 1497 1497 1498 1498 1498 1498 1498 1498 1497 1496 1495 1494 1492 1491 1489 1486 1481 1478 1476 1473 1470 1467 1463 1460 1457 1453
1468 1469 1471 1473 1475 1477 1479 1481 1483 1485 1486 1488 1489 1490 1492 1493 1494 1494 1495 1495 1496 1496 1496 1495 1495 1494 1493 1492 1491 1489 1487 1485 1483 1479 1475 1473 1470 1467 1463 1460 1456 1453 1450
1465 1467 1468 1470 1472 1475 1477 1479 1480 1482 1484 1485 1486 1488 1489 1490 1491 1492 1492 1493 1493 1493 1493 1492 1492 1491 1490 1489 1487 1486 1484 1482 1480 1477 1473 1469 1466 1463 1460 1456 1452 1449 1445
1463 1464 1466 1468 1470 1472 1474 1476 1478 1479 1481 1482 1484 1485 1486 1487 1488 1489 1490 1490 1490 1490 1490 1490 1489 1488 1487 1486 1484 1483 1481 1478 1476 1473 1470 1466 1463 1460 1457 1453 1449 1445 1442
1461 1462 1464 1466 1468 1469 1471 1473 1474 1476 1478 1479 1481 1482 1483 1484 1485 1486 1487 1487 1487 1487 1487 1486 1486 1485 1484 1483 1482 1480 1478 1476 1473 1470 1467 1464 1460 1458 1454 1451 1447 1443 1438
1459 1460 1462 1463 1465 1467 1468 1470 1472 1473 1475 1476 1478 1479 1480 1481 1482 1483 1483 1484 1484 1483 1483 1483 1482 1482 1481 1479 1478 1477 1475 1473 1471 1468 1465 1462 1458 1455 1452 1449 1445 1442 1438
1457 1458 1460 1461 1462 1464 1466 1467 1469 1470 1472 1473 1475 1476 1477 1478 1479 1480 1480 1480 1480 1480 1480 1480 1479 1478 1477 1476 1475 1473 1471 1469 1467 1465 1462 1459 1456 1453 1450 1447 1443 1439 1435
1455 1456 1458 1459 1460 1462 1463 1465 1466 1467 1469 1470 1472 1473 1474 1475 1476 1476 1477 1477 1477 1477 1477 1476 1476 1475 1474 1473 1472 1470 1468 1466 1464 1462 1460 1457 1454 1451 1448 1444 1441 1437 1432
1453 1454 1456 1457 1458 1460 1461 1462 1464 1465 1466 1468 1469 1470 1471 1472 1472 1473 1474 1473 1473 1473 1473 1473 1473 1472 1471 1470 1469 1467 1464 1462 1460 1458 1456 1453 1451 1448 1445 1442 1439 1435 1430
1452 1453 1454 1455 1456 1458 1459 1460 1461 1462 1464 1465 1466 1467 1468 1469 1469 1470 1471 1471 1470 1470 1470 1470 1469 1469 1468 1467 1466 1464 1462 1460 1458 1455 1452 1450 1448 1445 1442 1439 1436 1433 1430
1450 1451 1452 1453 1454 1456 1457 1457 1458 1460 1461 1462 1463 1464 1465 1466 1466 1467 1468 1468 1468 1468 1468 1467 1466 1466 1465 1464 1463 1461 1460 1458 1455 1453 1450 1447 1445 1442 1439 1437 1434 1431 1428
1449 1449 1450 1451 1452 1453 1454 1455 1456 1457 1458 1459 1460 1460 1461 1462 1463 1464 1465 1465 1466 1466 1465 1465 1464 1464 1463 1461 1460 1458 1457 1455 1453 1450 1448 1445 1443 1440 1437 1435 1432 1429 1426
1447 1448 1448 1449 1450 1451 1452 1453 1453 1454 1455 1456 1457 1458 1458 1459 1460 1461 1462 1462 1463 1463 1463 1462 1462 1461 1460 1459 1457 1456 1455 1453 1451 1449 1446 1444 1441 1439 1436 1433 1430 1427 1424
1446 1446 1447 1448 1448 1449 1450 1450 1451 1452 1453 1454 1454 1455 1456 1456 1458 1459 1459 1460 1460 1460 1460 1460 1459 1458 1457 1456 1455 1454 1452 1451 1449 1447 1445 1442 1440 1437 1434 1432 1429 1426 1423
1444 1445 1445 1446 1447 1447 1448 1449 1449 1450 1451 1452 1453 1454 1454 1455 1456 1456 1457 1458 1458 1458 1458 1457 1456 1456 1455 1454 1453 1451 1450 1449 1448 1446 1443 1441 1438 1436 1433 1431 1428 1425 1422
1442 1443 1444 1444 1445 1446 1446 1447 1447 1448 1449 1450 1451 1452 1452 1453 1454 1454 1454 1455 1456 1456 1455 1455 1454 1454 1453 1452 1451 1450 1449 1448 1446 1444 1442 1440 1438 1435 1432 1430 1427 1424 1421
1441 1442 1442 1443 1443 1444 1445 1445 1446 1446 1447 1448 1449 1450 1450 1451 1452 1452 1452 1453 1453 1453 1453 1453 1452 1452 1451 1451 1450 1448 1447 1446 1445 1443 1441 1439 1437 1434 1432 1429 1426 1423 1421
1439 1440 1441 1441 1442 1443 1443 1444 1444 1445 1446 1446 1447 1448 1449 1449 1450 1450 1450 1450 1450 1450 1450 1451 1451 1450 1449 1449 1448 1447 1446 1444 1443 1441 1440 1438 1436 1433 1431 1428 1426 1423 1420
1438 1438 1439 1439 1440 1441 1441 1442 1443 1443 1444 1444 1445 1445 1446 1447 1447 1447 1448 1448 1448 1448 1449 1449 1448 1448 1448 1447 1446 1445 1444 1443 1441 1440 1438 1436 1434 1432 1430 1427 1425 1422 1419
1436 1436 1437 1438 1438 1439 1440 1440 1441 1442 1442 1443 1443 1444 1444 1445 1445 1445 1446 1446 1446 1446 1447 1447 1446 1446 1446 1445 1444 1443 1442 1441 1440 1438 1436 1435 1433 1431 1429 1427 1424 1422 1419
1434 1435 1435 1436 1436 1437 1438 1439 1440 1440 1441 1441 1441 1442 1442 1443 1443 1444 1444 1444 1445 1445 1445 1445 1444 1444 1444 1443 1442 1441 1440 1439 1438 1436 1435 1433 1431 1430 1428 1426 1423 1421 1418
1433 1433 1434 1434 1435 1436 1436 1437 1438 1438 1439 1439 1439 1440 1440 1441 1441 1442 1442 1443 1443 1443 1443 1443 1442 1442 1442 1441 1441 1440 1438 1437 1436 1435 1433 1432 1430 1428 1427 1425 1423 1420 1418
1431 1432 1432 1433 1433 1434 1434 1435 1436 1437 1437 1438 1438 1438 1439 1439 1440 1440 1441 1441 1441 1441 1441 1441 1440 1440 1440 1439 1439 1438 1437 1436 1434 1433 1432 1431 1429 1427 1426 1424 1422 1420 1418
1430 1430 1431 1431 1431 1432 1432 1433 1434 1435 1435 1436 1436 1437 1437 1438 1438 1439 1439 1439 1439 1439 1439 1439 1439 1438 1438 1438 1437 1436 1435 1434 1433 1432 1431 1429 1428 1426 1425 1423 1421 1419 1418
1428 1428 1429 1429 1430 1430 1431 1431 1432 1433 1434 1434 1435 1435 1436 1436 1437 1437 1437 1438 1438 1438 1438 1437 1437 1437 1436 1436 1435 1434 1433 1432 1431 1430 1429 1428 1427 1425 1424 1422 1421 1419 1417